Randolph AFB, TX

1:53 AM CDT on April 21, 2018 (GMT -0500)
Randolph Air Force Base

Weather History for KRND - October, 2013

Change the Weather History Date:

Tuesday, October 1, 2013

  Actual Average Record
Temperature  
Mean Temperature 78 °F -  
Max Temperature 89 °F 82 °F 95 °F (1997)
Min Temperature 68 °F 62 °F 50 °F (1996)
Cooling Degree Days 14    
Growing Degree Days 28 (Base 50)    
Moisture  
Dew Point 71 °F    
Average Humidity 88    
Maximum Humidity 100    
Minimum Humidity 52    
Precipitation  
Precipitation 0.00 in - - ()
Sea Level Pressure  
Sea Level Pressure 29.89 in    
Wind  
Wind Speed 4 mph (ENE)    
Max Wind Speed 12 mph    
Max Gust Speed -    
Visibility 6 miles    
Events Fog    
Averages and records for this station are not official NWS values.
T = Trace of Precipitation, MM = Missing Value Source: NWS Daily Summary

Daily Weather History Graph

Daily Weather History Graph

Search for Another Location

Airport or City:

Astronomy

Oct. 01, 2013 Rise Set
Actual Time 7:26 AM CDT 7:18 PM CDT
Civil Twilight 7:02 AM CDT 7:42 PM CDT
Nautical Twilight 6:35 AM CDT 8:09 PM CDT
Astronomical Twilight 6:07 AM CDT 8:37 PM CDT
Moon 4:15 AM CDT (10/1) 5:12 PM CDT (10/1)
Length of Visible Light 12h 39m
Length of Day
11h 51m
Waning Crescent, 12% of the Moon is Illuminated
Oct 1
Waning Crescent
Oct 4
New
Oct 11
First Quarter
Oct 18
Full
Oct 26
Last Quarter

Hourly Weather History & Observations

Time (CDT) Temp. Heat Index Dew Point Humidity Pressure Visibility Wind Dir Wind Speed Gust Speed Precip Events Conditions
12:58 AM 71.4 °F - 65.8 °F 82% 29.85 in 10.0 mi South 2.3 mph - N/A   Clear
1:58 AM 72.1 °F - 68.2 °F 87% 29.85 in 10.0 mi South 5.8 mph - N/A   Clear
4:56 AM 68.0 °F - 66.2 °F 94% 29.86 in 10.0 mi North 2.3 mph - N/A   Overcast
5:11 AM 68.0 °F - 66.2 °F 94% 29.87 in 3.0 mi NNE 1.2 mph - N/A   Overcast
5:13 AM 68.0 °F - 66.2 °F 94% 29.87 in 2.5 mi Calm Calm - N/A   Overcast
5:18 AM 68.0 °F - 66.2 °F 94% 29.87 in 1.2 mi North 2.3 mph - N/A   Overcast
5:23 AM 68.0 °F - 66.2 °F 94% 29.87 in 0.8 mi North 2.3 mph - N/A   Mist
5:28 AM 68.0 °F - 66.2 °F 94% 29.87 in 0.5 mi NNE 2.3 mph - N/A Fog Fog
5:33 AM 68.0 °F - 66.2 °F 94% 29.87 in 0.5 mi North 1.2 mph - N/A Fog Fog
5:43 AM 68.0 °F - 66.2 °F 94% 29.88 in 0.2 mi North 1.2 mph - N/A Fog Fog
5:58 AM 68.9 °F - 67.5 °F 95% 29.86 in 0.2 mi NNW 2.3 mph - N/A Fog Fog
6:28 AM 69.8 °F - 68.0 °F 94% 29.88 in 0.5 mi NNW 1.2 mph - N/A Fog Fog
6:38 AM 69.8 °F - 68.0 °F 94% 29.88 in 0.5 mi NW 1.2 mph - N/A Fog Fog
6:43 AM 69.8 °F - 68.0 °F 94% 29.89 in 0.5 mi North 2.3 mph - N/A Fog Fog
6:48 AM 69.8 °F - 68.0 °F 94% 29.89 in 0.8 mi North 3.5 mph - N/A   Mist
6:53 AM 69.8 °F - 68.0 °F 94% 29.89 in 0.5 mi North 2.3 mph - N/A Fog Fog
6:58 AM 70.0 °F - 68.7 °F 96% 29.87 in 0.5 mi North 2.3 mph - N/A Fog Fog
7:08 AM 69.8 °F - 69.8 °F 100% 29.89 in 0.5 mi North 3.5 mph - N/A Fog Fog
7:13 AM 69.8 °F - 69.8 °F 100% 29.89 in 0.5 mi NNW 3.5 mph - N/A Fog Fog
7:24 AM 69.8 °F - 69.8 °F 100% 29.89 in 0.3 mi North 2.3 mph - N/A Fog Fog
7:28 AM 69.8 °F - 69.8 °F 100% 29.89 in 0.2 mi NNW 2.3 mph - N/A Fog Fog
7:38 AM 69.8 °F - 69.8 °F 100% 29.90 in 0.2 mi NNW 2.3 mph - N/A Fog Fog
7:43 AM 69.8 °F - 69.8 °F 100% 29.90 in 0.2 mi North 2.3 mph - N/A Fog Fog
7:58 AM 70.9 °F - 69.6 °F 96% 29.88 in 0.5 mi North 2.3 mph - N/A Fog Fog
8:03 AM 71.6 °F - 69.8 °F 94% 29.90 in 0.5 mi NNE 1.2 mph - N/A Fog Fog
8:18 AM 71.6 °F - 69.8 °F 94% 29.90 in 0.8 mi NNE 2.3 mph - N/A   Mist
8:23 AM 71.6 °F - 71.6 °F 100% 29.90 in 0.8 mi NE 1.2 mph - N/A   Overcast
8:38 AM 73.4 °F - 71.6 °F 94% 29.91 in 1.0 mi North 1.2 mph - N/A   Overcast
8:43 AM 73.4 °F - 71.6 °F 94% 29.91 in 2.0 mi Calm Calm - N/A   Overcast
8:48 AM 73.4 °F - 71.6 °F 94% 29.91 in 2.0 mi North 1.2 mph - N/A   Overcast
8:58 AM 73.4 °F - 73.4 °F 100% 29.89 in 2.5 mi Calm Calm - N/A   Overcast
9:03 AM 73.4 °F - 73.4 °F 100% 29.91 in 3.0 mi Calm Calm - N/A   Mostly Cloudy
9:23 AM 75.2 °F - 73.4 °F 94% 29.92 in 10.0 mi ESE 3.5 mph - N/A   Mostly Cloudy
9:28 AM 75.2 °F - 73.4 °F 94% 29.92 in 10.0 mi ESE 4.6 mph - N/A   Overcast
9:33 AM 75.2 °F - 75.2 °F 100% 29.92 in 10.0 mi ESE 4.6 mph - N/A   Overcast
9:43 AM 75.2 °F - 73.4 °F 94% 29.92 in 10.0 mi SE 5.8 mph - N/A   Overcast
9:48 AM 75.2 °F - 73.4 °F 94% 29.92 in 6.0 mi SE 5.8 mph - N/A   Overcast
9:58 AM 75.7 °F - 74.3 °F 95% 29.91 in 10.0 mi ESE 5.8 mph - N/A   Mostly Cloudy
10:33 AM 77.0 °F - 75.2 °F 94% 29.93 in 10.0 mi East 6.9 mph - N/A   Mostly Cloudy
10:48 AM 78.8 °F - 75.2 °F 89% 29.93 in 10.0 mi SE 9.2 mph - N/A   Scattered Clouds
10:58 AM 78.8 °F - 75.4 °F 89% 29.92 in 10.0 mi ESE 5.8 mph - N/A   Mostly Cloudy
11:08 AM 78.8 °F - 75.2 °F 89% 29.93 in 10.0 mi SE 6.9 mph - N/A   Partly Cloudy
11:58 AM 82.4 °F 87.4 °F 72.3 °F 71% 29.91 in 10.0 mi SSE 4.6 mph - N/A   Scattered Clouds
12:58 PM 83.7 °F 88.9 °F 71.8 °F 67% 29.90 in 10.0 mi NE 2.3 mph - N/A   Partly Cloudy
1:58 PM 86.2 °F 91.4 °F 70.7 °F 60% 29.87 in 10.0 mi Variable 4.6 mph - N/A   Clear
2:58 PM 87.6 °F 91.5 °F 68.7 °F 53% 29.85 in 10.0 mi SE 9.2 mph - N/A   Clear
3:58 PM 88.9 °F 93.4 °F 69.3 °F 52% 29.84 in 10.0 mi SE 8.1 mph - N/A   Partly Cloudy
4:58 PM 89.1 °F 94.6 °F 70.3 °F 54% 29.83 in 10.0 mi ESE 9.2 mph - N/A   Clear
5:58 PM 88.9 °F 93.4 °F 69.1 °F 52% 29.81 in 10.0 mi SE 9.2 mph - N/A   Clear
6:58 PM 83.7 °F 89.2 °F 72.0 °F 68% 29.83 in 10.0 mi ESE 10.4 mph - N/A   Clear
7:55 PM 80.6 °F 84.6 °F 71.6 °F 74% 29.86 in 10.0 mi ESE 6.9 mph - N/A   Light Drizzle
7:58 PM 80.4 °F 84.5 °F 72.3 °F 76% 29.84 in 10.0 mi ESE 6.9 mph - 0.00 in   Light Drizzle
7:59 PM 80.6 °F 84.6 °F 71.6 °F 74% 29.86 in 10.0 mi ESE 6.9 mph - N/A   Clear
8:42 PM 78.8 °F - 71.6 °F 78% 29.88 in 10.0 mi SE 9.2 mph - N/A   Light Drizzle
8:51 PM 78.8 °F - 73.4 °F 83% 29.89 in 10.0 mi SE 8.1 mph - N/A   Clear
8:58 PM 79.0 °F - 72.5 °F 80% 29.87 in 10.0 mi SE 9.2 mph - 0.00 in   Clear
9:58 PM 77.9 °F - 73.0 °F 85% 29.90 in 10.0 mi SE 8.1 mph - N/A   Scattered Clouds
10:28 PM 77.0 °F - 73.4 °F 89% 29.92 in 10.0 mi SE 9.2 mph - N/A   Mostly Cloudy
10:58 PM 77.4 °F - 72.9 °F 86% 29.91 in 10.0 mi SE 11.5 mph - N/A   Mostly Cloudy
11:33 PM 77.0 °F - 73.4 °F 89% 29.93 in 10.0 mi SSE 9.2 mph - N/A   Scattered Clouds
11:58 PM 76.5 °F - 72.9 °F 89% 29.91 in 10.0 mi SE 10.4 mph - N/A   Mostly Cloudy